Location: Mimet
(43.4139°N, 5.5049°E)
Time: 14:15:54
(UTC+00:00)

Daily predictions for brighter satellites

Satellite Brightness Start Highest point End
(mag) Time Altitude Azimuth Time Altitude Azimuth Time Altitude Azimuth
NOSS 3-1 (C) 3.3 17:35:54 10° SSW 17:41:17 79° ESE 17:47:33 10° NE
CZ-4 R/B 1.6 17:39:46 10° SSE 17:43:51 53° ENE 17:47:55 10° N
Cosmos 2346 Rocket 4.5 17:38:56 10° N 17:45:12 76° E 17:51:21 10° SSE
STARLINK-1037 4.1 17:41:48 10° SSW 17:45:45 46° SE 17:49:44 10° ENE
Cosmos 1340 3.8 17:43:49 10° SE 17:46:49 23° E 17:49:50 10° NE
STARLINK-24 4.4 17:46:50 10° WSW 17:50:43 46° NNW 17:54:37 10° NE
STARLINK-1059 3.9 17:46:48 10° SW 17:50:48 51° SE 17:54:49 10° ENE
Cosmos 921 Rocket 3.1 17:47:30 10° S 17:51:58 67° ESE 17:56:28 10° NNE
STARLINK-1023 3.9 17:52:07 10° WSW 17:55:09 43° NNW 17:58:11 10° NE
STARLINK-1057 3.8 17:51:43 10° SW 17:55:46 56° SE 17:59:49 10° ENE
Envisat 4.3 17:52:19 10° S 17:57:11 46° W 18:02:05 10° NNW
CZ-4 R/B 4.4 17:53:48 10° SSE 17:57:55 89° ENE 18:02:05 10° NNW
STARLINK-81 4.5 17:56:11 10° W 18:00:02 44° NNW 18:03:55 10° NE
COSMOS 2487 4.3 17:59:03 10° NNE 18:00:41 13° ENE 18:01:42 12° ENE
STARLINK-1034 3.7 17:56:39 10° SW 18:00:43 61° SE 18:04:48 10° ENE
Cosmos 1725 Rocket 4.1 17:55:37 10° S 18:01:47 86° W 18:08:02 10° N
ADEOS Rocket 3.8 17:54:24 10° NNE 18:01:58 51° E 18:09:20 10° S
Cosmos 1656 Rocket 4.3 18:00:19 10° SSE 18:05:10 33° ESE 18:10:06 10° NE
Cosmos 1777 Rocket 4.0 17:59:58 10° NNW 18:05:18 77° ENE 18:10:33 10° SSE
STARLINK-1068 3.6 18:01:35 10° SW 18:05:40 67° SE 18:09:37 11° ENE
SJ 16-02 3.1 18:04:43 10° NNE 18:06:56 13° NE 18:08:07 12° ENE
Aureole 2 Rocket 1.8 18:06:51 10° SSW 18:09:27 79° WNW 18:12:08 10° NNE
STARLINK-1007 4.3 18:07:54 10° W 18:10:53 34° NNW 18:13:51 10° NE
HJ-1C 4.2 18:08:21 10° SE 18:11:14 28° ENE 18:14:08 10° N
NOSS 2-3 (E) 3.6 18:10:42 10° SSW 18:14:54 67° ESE 18:19:47 10° NE
STARLINK-1060 3.6 18:11:29 10° SW 18:15:37 79° SE 18:19:11 14° ENE
YAOGAN 1 2.6 18:12:50 10° SSE 18:17:10 84° W 18:21:31 10° NNW
Cosmos 2369 Rocket 2.2 18:12:08 10° SSW 18:17:47 89° ESE 18:23:31 10° NNE
Cosmos 1812 2.9 18:13:58 10° NNW 18:17:50 75° W 18:21:41 10° S
STARLINK-1030 3.6 18:16:29 10° SW 18:20:37 86° SE 18:24:00 15° NE
Cosmos 1633 Rocket 3.4 18:17:50 10° SSW 18:22:08 67° W 18:26:28 10° N
Cosmos 2285 Rocket 4.0 18:17:02 10° NNW 18:23:22 63° ENE 18:29:42 10° SSE
CZ-2D R/B 3.3 18:19:33 10° SSE 18:23:27 86° WSW 18:27:21 10° NNW
SL-27 R/B 3.2 18:20:56 10° NNW 18:24:11 51° WSW 18:27:24 10° S
STARLINK-1020 3.6 18:21:26 10° SW 18:25:34 88° NW 18:28:45 17° NE
Tsikada Rocket 4.5 18:19:22 10° NNW 18:25:43 68° W 18:32:04 10° S
STARLINK-1047 3.6 18:22:14 10° SW 18:26:24 85° NW 18:29:37 17° NE
Cosmos 1933 Rocket 3.6 18:25:08 10° S 18:29:27 56° E 18:33:46 10° NNE
Cosmos 1833 4.3 18:23:58 10° NNW 18:29:39 56° ENE 18:35:15 10° SE
NOSS 2-3 (D) 3.6 18:25:36 10° SSW 18:29:51 84° SE 18:34:49 10° NE
STARLINK-1052 3.6 18:26:26 10° WSW 18:30:34 81° NW 18:33:33 18° NE
USA 229 DEB 4.3 18:25:34 10° WSW 18:31:58 54° NW 18:38:43 10° NNE
USA 229 4.3 18:25:40 10° SW 18:32:04 54° NW 18:38:49 10° NNE
STARLINK-29 3.2 18:29:01 10° NW 18:32:23 58° NNE 18:33:51 29° E
Cosmos 44 3.0 18:31:58 10° NW 18:36:24 90° SSE 18:40:59 10° SSE
Cosmos 1346 Rocket 2.7 18:34:17 10° S 18:38:16 79° E 18:42:15 10° NNE
NOSS 3-1 (A) 3.6 18:33:33 10° SW 18:39:00 68° NW 18:45:23 10° NNE
SJ-11-01 4.3 18:34:50 10° SSE 18:39:22 54° ENE 18:43:56 10° N
STARLINK-1033 3.8 18:36:25 10° WSW 18:40:32 70° NNW 18:43:07 22° NE
Ariane Rocket 3.0 18:35:39 10° SSE 18:40:39 60° ENE 18:45:42 10° N
STARLINK-1035 4.0 18:37:02 10° WSW 18:41:15 64° NNW 18:44:00 21° NE
STARLINK-1041 4.5 18:38:41 10° SSW 18:42:19 30° SE 18:42:58 29° ESE
Cosmos 2263 4.3 18:37:12 10° SSW 18:42:59 81° WNW 18:48:47 10° NNE
ARGOS 3.6 18:39:13 15° SE 18:43:10 39° ENE 18:48:10 10° N
FALCON 9 DEB 3.0 18:40:19 10° NW 18:43:46 85° NE 18:45:00 37° ESE
STARLINK-52 3.1 18:41:12 10° NW 18:44:34 65° NNE 18:45:26 44° E
CSL-04 Rocket 4.4 18:39:16 10° S 18:44:43 58° WSW 18:50:09 10° NNW
STARLINK-1038 4.3 18:43:34 10° SSW 18:47:18 33° SE 18:47:46 32° ESE
STARLINK-60 4.1 18:47:11 10° WNW 18:50:18 41° SW 18:51:55 23° SSE
STARLINK-1024 4.0 18:46:25 10° WSW 18:50:30 60° NNW 18:52:40 26° NE
STARLINK-1027 4.3 18:47:46 10° WSW 18:51:56 52° NNW 18:54:16 24° NE
STARLINK-1046 4.2 18:48:25 10° SSW 18:52:13 36° SE 18:52:32 36° SE
Meteor 2-11 Rocket 4.4 18:47:22 10° S 18:53:19 58° E 18:59:16 10° NNE
H-2A R/B 2.2 18:48:49 10° SSE 18:54:01 55° ENE 18:59:19 10° N
Cosmos 990 Rocket 4.3 18:52:06 10° N 18:57:01 44° ENE 18:58:20 36° ESE
ARGOS Delta rocket 4.3 18:57:38 33° ENE 18:57:38 33° ENE 19:01:10 10° N
STARLINK-1039 4.1 18:53:18 10° SSW 18:57:10 40° SE 18:57:19 40° SE
Lacrosse 5 2.9 18:54:51 10° S 18:58:29 27° SE 18:58:29 27° SE
MOS 1 4.2 18:54:06 10° SSE 18:59:42 66° ENE 19:05:18 10° N
STARLINK-1032 4.2 18:56:27 10° WSW 19:00:30 52° NNW 19:02:16 30° NNE
Meteor 1-18 Rocket 4.3 18:55:13 10° N 19:01:06 62° ENE 19:06:51 10° SSE
Meteor 1-20 Rocket 4.0 18:56:11 10° S 19:01:38 84° E 19:07:12 10° NNE
STARLINK-1045 4.0 18:58:13 10° SSW 19:02:06 44° SE 19:02:06 44° SE
Cosmos 2297 Rocket 4.0 18:59:27 10° N 19:02:16 15° NE 19:02:16 15° NE
Cosmos 1932 4.5 18:57:36 10° NW 19:04:12 88° NE 19:08:56 20° SSE
Cosmos 1937 Rocket 4.0 19:00:06 10° N 19:05:01 38° ENE 19:05:16 38° ENE
STARLINK-1011 4.3 19:01:28 10° WSW 19:05:29 49° NNW 19:07:02 31° NNE
STARLINK-1050 3.8 19:03:10 10° SSW 19:07:01 49° SE 19:07:01 49° SE
Lacrosse 5 rocket 3.7 19:05:35 10° NNW 19:08:20 16° N 19:09:19 15° NNE
Okean 1 3.2 19:04:30 10° N 19:08:22 62° ENE 19:08:22 62° ENE
Cosmos 1072 Rocket 4.5 19:03:37 10° S 19:10:01 87° E 19:16:22 10° N
Cosmos 192 4.2 19:05:24 10° S 19:10:14 62° ESE 19:12:36 29° NE
STARLINK-1036 4.4 19:06:30 10° WSW 19:10:29 46° NNW 19:11:50 33° NNE
SL-24 DEB 4.3 19:10:49 52° E 19:11:12 54° E 19:15:46 10° N
STARLINK-1055 3.8 19:08:05 10° SW 19:11:47 53° SSE 19:11:47 53° SSE
Cosmos 2242 Rocket 4.4 19:08:19 10° NNW 19:12:45 53° W 19:17:11 10° S
Resurs 01 Rocket 3.8 19:15:30 14° NNE 19:15:30 14° NNE 19:16:21 10° NNE
SL-08 RB Rocket 4.1 19:14:23 43° NE 19:14:23 43° NE 19:17:56 10° N
Meteor 1-14 Rocket 4.0 19:08:31 10° S 19:14:00 70° E 19:19:32 10° NNE
Cosmos 1943 Rocket 4.1 19:11:18 10° WSW 19:15:59 27° NW 19:20:41 10° N
STARLINK-1022 3.8 19:13:01 10° SW 19:16:35 54° S 19:16:35 54° S
Gbstr 26 Del rocket 2.9 19:13:54 10° SW 19:18:00 78° SE 19:18:23 71° E
Cosmos 2227 Rocket 3.9 19:17:30 10° N 19:20:08 17° NNE 19:20:08 17° NNE
STARLINK-1042 3.9 19:17:57 10° SW 19:21:21 54° S 19:21:21 54° S
Cosmos 1513 Rocket 4.4 19:16:17 10° S 19:22:22 82° W 19:28:33 10° N
CZ-2C R/B 3.2 19:18:59 18° SSE 19:23:24 82° ENE 19:29:10 10° NNW
GPS 2-04 Rocket1 4.4 19:22:51 10° SW 19:25:34 25° SSW 19:25:34 25° SSW
STARLINK-1056 4.1 19:22:54 10° SW 19:26:08 52° SSW 19:26:08 52° SSW
Cosmos 405 4.0 19:26:45 10° NNW 19:29:30 45° NW 19:29:30 45° NW
STARLINK-1054 4.3 19:27:50 10° SW 19:30:54 48° SW 19:30:54 48° SW
USA 267 3.8 19:33:08 37° SSE 19:33:08 37° SSE 19:38:07 10° SSW
Cosmos 1703 Rocket 4.4 19:29:40 10° NNW 19:33:59 50° W 19:37:46 13° SSW
Okean 1-7 3.6 19:30:29 10° NNW 19:34:43 57° W 19:36:19 34° SSW
COSMOS 2487 3.9 19:32:43 10° NNW 19:35:18 36° WNW 19:35:18 36° WNW
SPOT 3 Rocket 3.4 19:36:24 78° E 19:36:34 79° ENE 19:41:48 10° NNW
STARLINK-1062 4.5 19:32:49 10° SW 19:35:42 44° SW 19:35:42 44° SW
Meteor 1-19 Rocket 4.2 19:32:32 10° NNW 19:38:22 83° W 19:40:38 39° S
Cosmos 468 Rocket 4.1 19:34:24 10° SSW 19:39:39 73° WNW 19:44:32 12° NNE
Cosmos 1869 Rocket 3.9 19:37:03 10° SSW 19:42:49 40° NNW 19:45:46 10° N
Cosmos 44 Rocket 3.7 19:36:48 10° NNW 19:40:28 50° N 19:40:28 50° N
Meteor 2-4 Rocket 3.7 19:36:33 10° N 19:42:12 68° ENE 19:42:12 68° ENE
Cosmos 2219 4.3 19:39:03 10° N 19:42:42 31° NNE 19:42:42 31° NNE
SJ 16-02 2.0 19:41:38 10° NNW 19:45:09 53° NW 19:45:09 53° NW
BREEZE-M DEB (TANK) 4.3 19:42:34 10° WNW 19:46:06 60° SSW 19:47:33 48° SSE
Cosmos 1898 Rocket 3.8 19:46:34 10° NNW 19:51:41 62° WSW 19:52:08 59° SW
Nadezhda 4 Rocket 4.3 19:54:31 10° NNW 20:00:44 65° W 20:03:48 31° SSW
USA 234 3.9 20:06:31 40° NNE 20:06:31 40° NNE 20:12:28 10° NW
Cosmos 1763 Rocket 4.2 20:01:47 10° SW 20:06:51 52° WNW 20:07:24 50° NW
NOSS 3-2 (A) 4.3 20:11:15 10° NNW 20:17:38 51° NNE 20:17:38 51° NNE
BREEZE-M DEB (TANK) 4.1 20:12:46 10° WNW 20:27:48 56° NNW 20:27:48 56° NNW
H-2A R/B 4.4 20:29:49 10° SW 20:33:46 21° W 20:37:47 10° NW
Lacrosse 5 4.3 20:36:49 10° WSW 20:37:46 15° WSW 20:37:46 15° WSW
CENTAUR R/B 3.9 20:35:27 10° NNW 20:41:17 41° NNE 20:41:17 41° NNE
Cosmos 2297 Rocket 4.1 20:42:03 10° NNW 20:44:05 23° NNW 20:44:05 23° NNW
ATLAS 3B R/B 4.3 20:47:39 10° NNW 20:50:49 24° N 20:50:49 24° N
Cosmos 2227 Rocket 4.4 21:00:27 10° NNW 21:01:58 19° NNW 21:01:58 19° NNW
